Wind_Speed
4 5 5 5 4 4 4 4 4 5 5 5 5 5 5 5 5 5 5 5 5 5 6 5 5 5 4 4 4 4 4 4 4 4 4 4 5 5 5 6 6 7 8
4 4 5 4 4 4 5 5 5 5 4 5 5 5 5 5 5 5 5 5 5 5 6 6 6 5 5 5 5 5 5 4 4 5 6 5 6 6 7 7 8 8 9
5 5 5 5 5 5 5 5 5 5 5 5 5 6 5 5 5 5 5 5 6 6 6 6 6 6 6 6 6 5 5 5 5 5 5 6 7 7 8 9 9 10 10
6 6 5 5 5 5 5 6 6 5 6 6 6 6 6 7 7 7 7 7 7 7 7 7 7 7 7 6 7 7 6 7 7 7 7 7 8 8 8 9 9 10 11
7 6 6 6 6 5 6 7 7 7 7 7 8 8 8 8 8 8 8 8 8 9 8 9 9 9 8 8 9 9 9 9 9 9 8 8 9 9 9 10 10 11 12
8 7 6 7 7 7 7 8 8 8 8 8 9 9 10 10 10 10 10 10 10 9 9 9 10 10 10 10 10 10 10 10 10 9 9 10 10 10 10 10 11 12 13
8 8 8 8 8 8 9 10 10 10 9 9 10 11 11 11 11 11 11 11 11 11 11 11 11 12 12 12 12 12 12 12 11 11 10 11 12 12 12 13 13 13 14
8 9 9 9 9 10 10 11 11 11 11 11 12 12 12 12 12 12 12 12 12 13 13 13 13 13 13 13 13 13 14 14 13 13 13 13 13 13 14 14 14 14 15
9 10 10 10 11 11 11 12 12 13 12 12 13 13 13 13 13 12 12 13 13 13 14 14 14 15 14 15 15 15 15 16 16 16 15 15 15 15 15 16 16 16 16
11 11 11 12 12 12 13 13 13 14 14 14 14 14 14 13 13 13 13 14 15 15 15 15 15 16 16 17 16 16 17 17 17 17 16 16 17 17 17 17 18 18 18
12 12 13 13 13 13 13 14 14 15 15 15 15 15 15 15 14 14 15 15 15 15 15 15 16 17 18 18 18 18 19 19 19 19 19 18 19 19 20 20 20 20 20
13 13 13 14 14 14 14 14 15 16 16 16 16 16 16 16 16 15 16 16 16 16 16 17 18 18 19 20 20 20 20 20 21 20 21 21 21 21 22 22 22 22 22
14 14 14 14 15 15 15 16 16 17 17 17 17 18 17 17 17 17 16 16 17 17 18 18 19 19 20 20 21 21 21 21 21 21 22 22 23 23 23 23 23 23 23
15 15 16 16 16 16 17 17 18 18 18 18 18 19 19 19 18 18 18 18 19 19 20 20 20 20 21 21 21 21 21 22 23 23 23 23 23 23 24 24 24 24 24
17 18 18 17 17 18 18 19 20 20 21 20 20 21 21 20 20 20 19 19 20 21 21 21 22 22 22 22 22 22 23 23 23 23 23 24 24 24 24 24 24 24 25
20 20 20 19 19 20 21 21 21 21 22 22 23 22 22 22 22 22 22 22 23 23 23 23 23 23 23 23 23 24 24 24 23 24 24 25 25 25 25 25 25 25 25
21 21 20 20 21 21 22 22 22 22 23 23 24 24 24 24 23 24 24 24 25 25 24 25 24 25 25 25 25 25 26 25 25 26 26 26 27 27 27 27 27 27 27
21 21 21 22 22 23 23 24 24 24 24 24 25 25 25 26 26 26 26 25 26 26 25 25 26 26 26 26 27 27 27 27 28 28 28 28 28 28 28 28 28 28 28
23 22 23 24 24 24 24 25 26 26 26 26 26 26 27 27 27 27 27 28 27 27 27 27 27 28 28 28 28 28 28 29 29 29 29 29 29 29 29 29 29 29 30
24 25 25 25 26 26 26 26 27 27 27 27 28 28 28 28 27 27 28 28 28 28 28 29 29 29 29 29 29 29 29 30 30 29 29 29 29 29 29 29 29 29 29
26 26 26 26 27 27 28 28 28 28 29 29 29 28 28 28 27 27 28 28 28 29 30 30 31 31 30 30 30 30 31 30 29 29 29 29 30 30 30 30 29 29 29
27 27 27 27 27 28 28 28 28 29 30 30 30 29 29 29 29 28 28 28 29 30 30 30 31 31 31 30 30 30 29 29 29 29 29 30 30 30 30 30 29 30 30
29 29 28 28 29 29 28 28 28 29 29 29 29 29 29 30 30 30 29 29 29 30 30 31 31 31 30 30 29 29 29 29 30 30 30 30 30 30 30 30 30 30 31
31 31 30 30 30 30 30 31 30 30 29 29 30 30 31 30 30 30 29 28 29 29 29 30 30 30 29 29 29 29 30 30 30 30 30 31 30 30 30 30 30 31 31
32 33 32 32 31 31 31 31 30 30 30 30 30 30 30 30 30 29 28 28 28 28 29 30 30 30 30 29 29 30 30 30 30 31 31 30 30 30 30 30 30 30 30
31 32 32 32 32 31 30 30 30 30 30 29 29 29 30 29 29 29 29 28 29 29 29 30 30 30 30 29 29 30 30 30 30 31 30 30 30 30 30 30 30 30 30
Wind_Direction
346 351 358 3 3 357 350 346 347 347 346 351 354 354 350 355 3 9 6 354 348 352 350 339 333 330 323 311 311 316 305 286 281 279 274 268 264 259 247 248 253 259 262
330 330 335 339 338 336 336 334 332 334 331 333 341 339 337 340 349 353 351 345 340 331 332 334 331 328 322 311 312 315 314 307 299 285 282 286 282 273 265 263 261 263 267
318 320 328 329 323 320 322 327 321 320 321 320 321 327 326 325 326 327 326 327 326 320 320 325 328 324 316 310 310 317 321 314 312 304 300 296 288 281 275 272 270 269 272
318 318 323 325 320 315 317 324 323 318 313 311 311 316 319 317 316 313 311 311 313 313 316 314 313 316 313 312 311 310 304 305 304 303 299 298 299 285 281 277 274 275 278
322 315 314 317 314 307 311 318 317 315 313 309 307 310 311 309 308 307 304 303 304 306 309 311 312 313 310 308 306 301 300 298 295 296 292 292 290 283 280 278 277 279 281
319 315 311 311 307 305 310 311 309 308 309 306 305 307 309 309 306 303 300 300 301 304 305 306 305 305 301 300 300 298 294 293 291 289 287 286 285 281 276 277 279 283 284
312 310 309 305 301 303 306 306 306 304 304 304 302 303 304 304 303 300 298 297 297 297 297 299 300 300 298 296 294 292 289 289 288 285 284 283 282 280 279 280 282 285 285
309 308 310 307 301 300 302 303 303 303 304 305 301 299 300 301 300 297 296 294 294 295 295 295 296 297 297 293 290 288 288 288 286 284 284 283 283 283 284 284 284 283 285
299 302 306 307 303 301 301 301 301 301 302 303 301 300 298 300 300 298 296 296 294 294 293 292 293 292 293 293 290 287 286 286 286 283 282 282 282 284 286 286 286 285 283
296 297 298 304 305 303 303 301 300 299 297 298 299 297 296 298 300 298 296 294 293 292 291 290 292 293 292 292 290 286 283 284 283 282 280 280 281 282 284 285 284 284 285
297 295 297 299 301 303 302 302 300 297 294 294 295 296 297 297 297 295 295 294 293 291 291 292 293 294 294 293 291 287 284 284 283 280 278 279 281 282 283 283 284 284 284
295 296 296 299 299 300 301 301 300 297 294 293 293 294 295 298 297 295 293 292 291 291 292 292 293 294 294 292 291 289 285 284 283 281 279 279 280 282 283 281 281 282 282
290 292 294 298 301 300 299 298 298 297 295 294 293 293 293 294 293 294 293 292 292 293 294 293 293 293 292 290 288 288 285 284 283 283 283 282 281 281 282 280 280 280 282
286 289 290 292 296 298 298 298 299 298 296 294 292 293 294 293 293 293 292 292 292 294 295 294 293 292 292 290 289 287 286 284 283 283 283 283 283 282 282 281 280 279 279
284 287 289 288 291 294 297 296 296 295 294 292 290 291 292 293 294 292 290 290 292 293 293 294 295 293 291 289 289 288 287 286 284 284 284 284 283 283 282 281 279 279 278
282 285 286 286 289 290 292 294 294 294 293 291 289 290 291 291 292 291 290 290 290 292 293 294 294 293 291 289 288 288 288 286 285 286 286 286 284 283 282 282 279 278 278
280 282 283 285 288 290 290 290 290 291 291 290 288 289 288 290 291 290 289 289 290 291 292 292 292 292 291 289 288 289 289 287 286 286 286 286 284 283 282 281 279 279 279
276 279 282 284 286 287 287 287 288 288 289 290 289 288 286 287 289 290 289 289 290 291 291 291 291 290 291 290 288 288 288 288 287 287 286 285 284 283 282 281 280 279 279
273 277 280 283 284 286 287 288 290 290 290 290 291 289 288 288 288 288 288 289 290 291 292 292 293 291 290 289 289 289 289 289 287 286 286 285 284 284 283 281 280 279 279
273 276 278 280 283 285 286 287 288 290 292 293 290 290 289 288 288 287 288 289 290 291 292 292 292 291 291 289 289 289 289 289 287 285 285 285 285 284 284 283 282 280 279
274 275 277 278 281 282 284 286 288 288 290 291 291 291 291 289 287 288 289 289 290 291 291 292 292 292 292 291 289 289 288 287 286 285 285 285 285 285 284 283 283 281 280
273 275 276 278 280 282 283 285 286 287 288 289 290 289 288 289 288 288 289 289 289 290 291 292 294 293 292 291 290 289 287 286 286 286 287 287 287 286 285 284 283 281 281
273 274 275 278 280 281 282 284 285 287 288 289 288 287 287 288 288 288 291 290 290 290 291 292 293 294 292 291 289 289 288 287 286 287 288 288 287 287 286 285 283 282 281
274 275 275 277 278 279 281 282 283 284 286 287 287 288 286 287 290 290 290 292 291 291 294 294 294 294 293 291 289 288 289 288 287 288 288 288 286 286 285 283 282 280 280
274 275 277 277 277 278 280 281 281 282 284 286 286 286 285 285 287 289 290 291 292 294 294 295 294 293 293 291 289 288 289 289 288 287 286 285 285 284 285 284 283 281 280
276 277 278 277 276 276 278 280 281 282 284 285 285 286 287 287 288 289 290 291 292 293 294 294 294 294 293 291 291 290 289 289 288 286 285 285 285 284 284 285 284 283 282
Height
5900 5899 5897 5896 5895 5894 5893 5892 5891 5890 5889 5887 5886 5885 5884 5883 5881 5880 5879 5878 5877 5876 5875 5873 5872 5871 5870 5870 5869 5868 5868 5867 5866 5866 5866 5866 5866 5866 5866 5866 5866 5866 5866
5900 5899 5898 5896 5895 5894 5893 5892 5891 5890 5889 5887 5886 5885 5884 5883 5881 5880 5879 5878 5877 5876 5875 5873 5872 5871 5870 5869 5868 5868 5867 5866 5866 5866 5865 5865 5866 5865 5865 5865 5865 5864 5864
5900 5898 5897 5896 5895 5894 5893 5892 5890 5889 5888 5887 5886 5884 5883 5882 5881 5880 5879 5878 5876 5875 5874 5873 5871 5870 5869 5868 5868 5867 5866 5865 5865 5865 5864 5864 5864 5863 5863 5863 5862 5862 5861
5899 5898 5897 5895 5894 5893 5892 5891 5890 5888 5887 5886 5885 5884 5882 5881 5880 5879 5878 5877 5876 5874 5873 5872 5871 5869 5868 5867 5866 5865 5865 5864 5864 5863 5862 5862 5861 5861 5861 5861 5860 5860 5859
5898 5897 5896 5895 5893 5892 5891 5890 5889 5888 5886 5885 5884 5883 5881 5880 5879 5878 5876 5875 5874 5873 5872 5871 5869 5868 5867 5866 5865 5864 5863 5863 5862 5861 5860 5860 5859 5859 5859 5858 5858 5857 5856
5897 5896 5895 5894 5892 5891 5890 5889 5888 5886 5885 5884 5883 5881 5880 5879 5877 5876 5875 5873 5872 5871 5870 5869 5868 5866 5865 5864 5863 5862 5861 5861 5860 5859 5858 5858 5857 5856 5856 5855 5855 5854 5853
5896 5895 5894 5893 5891 5890 5889 5887 5886 5884 5883 5882 5881 5880 5878 5877 5875 5874 5872 5871 5870 5869 5868 5866 5865 5864 5863 5862 5860 5859 5859 5858 5857 5856 5855 5855 5854 5853 5853 5852 5852 5851 5850
5895 5894 5892 5891 5890 5888 5887 5886 5884 5883 5881 5880 5878 5877 5876 5874 5872 5871 5870 5868 5867 5866 5865 5864 5862 5861 5860 5859 5858 5857 5855 5855 5854 5853 5852 5851 5851 5850 5849 5849 5848 5847 5847
5893 5892 5890 5889 5888 5886 5885 5883 5882 5881 5879 5877 5876 5874 5873 5871 5869 5868 5867 5866 5864 5863 5862 5860 5859 5858 5856 5855 5854 5853 5852 5851 5850 5849 5849 5848 5847 5846 5846 5845 5844 5843 5842
5890 5889 5888 5887 5885 5884 5882 5881 5879 5878 5876 5875 5873 5872 5870 5868 5866 5865 5863 5862 5861 5860 5858 5857 5855 5854 5852 5851 5850 5849 5848 5847 5846 5845 5844 5843 5843 5842 5841 5840 5839 5838 5837
5888 5887 5885 5884 5883 5881 5880 5878 5877 5875 5873 5871 5870 5868 5866 5865 5863 5862 5860 5859 5857 5856 5854 5853 5851 5850 5848 5847 5845 5844 5843 5842 5841 5840 5839 5838 5838 5837 5836 5835 5834 5833 5832
5885 5884 5883 5881 5880 5878 5877 5875 5873 5872 5870 5868 5867 5865 5863 5861 5860 5858 5856 5855 5853 5852 5850 5848 5847 5845 5843 5841 5840 5839 5837 5837 5836 5834 5833 5833 5832 5831 5830 5829 5828 5827 5826
5882 5881 5879 5878 5876 5875 5873 5872 5870 5868 5867 5865 5863 5861 5859 5857 5856 5854 5852 5850 5849 5847 5845 5843 5842 5840 5838 5836 5834 5833 5831 5830 5829 5828 5827 5826 5826 5824 5823 5822 5822 5821 5820
5878 5877 5876 5874 5873 5871 5870 5868 5866 5864 5863 5861 5859 5857 5855 5853 5851 5850 5848 5846 5844 5842 5840 5838 5836 5834 5832 5831 5829 5827 5825 5824 5823 5822 5821 5820 5819 5818 5817 5816 5815 5814 5813
5874 5873 5871 5870 5869 5867 5865 5863 5862 5860 5858 5856 5854 5853 5851 5849 5847 5845 5843 5841 5839 5837 5835 5833 5831 5829 5827 5825 5823 5821 5819 5818 5816 5815 5814 5813 5812 5810 5809 5808 5807 5807 5806
5869 5868 5866 5865 5864 5862 5861 5859 5857 5855 5853 5851 5849 5848 5846 5844 5842 5840 5838 5836 5833 5831 5829 5827 5825 5822 5820 5818 5817 5815 5813 5811 5809 5808 5807 5805 5804 5803 5802 5801 5800 5799 5798
5863 5862 5861 5860 5859 5857 5855 5853 5851 5849 5847 5845 5844 5842 5840 5838 5836 5834 5831 5829 5827 5825 5823 5820 5818 5816 5813 5812 5810 5808 5806 5804 5802 5801 5799 5798 5796 5795 5794 5793 5792 5791 5791
5857 5856 5855 5854 5852 5851 5849 5847 5845 5843 5841 5839 5837 5835 5833 5831 5829 5827 5825 5822 5820 5818 5815 5813 5811 5808 5806 5804 5802 5800 5798 5796 5794 5793 5791 5790 5788 5787 5785 5784 5784 5783 5782
5851 5850 5849 5848 5846 5844 5842 5841 5839 5836 5834 5832 5830 5828 5826 5824 5822 5819 5817 5815 5813 5810 5808 5805 5803 5801 5798 5796 5794 5792 5790 5788 5786 5784 5783 5781 5780 5778 5777 5776 5774 5774 5773
5844 5843 5842 5841 5839 5837 5835 5834 5832 5829 5827 5825 5823 5820 5818 5816 5814 5812 5809 5807 5804 5802 5800 5798 5795 5792 5790 5788 5786 5784 5782 5780 5778 5776 5774 5772 5771 5769 5768 5766 5765 5764 5764
5836 5836 5834 5833 5832 5830 5828 5826 5824 5822 5820 5817 5815 5812 5810 5808 5806 5804 5802 5799 5797 5794 5792 5789 5787 5784 5782 5779 5777 5775 5773 5771 5769 5767 5765 5763 5762 5760 5759 5757 5756 5755 5754
5828 5827 5826 5825 5824 5822 5820 5818 5816 5814 5812 5809 5807 5804 5802 5800 5798 5796 5793 5791 5789 5786 5784 5781 5778 5776 5773 5771 5769 5766 5764 5762 5760 5758 5757 5755 5753 5751 5749 5748 5747 5745 5744
5820 5819 5818 5817 5815 5813 5812 5810 5808 5806 5804 5801 5799 5796 5794 5792 5789 5787 5785 5783 5780 5777 5775 5773 5770 5767 5765 5762 5760 5758 5756 5753 5751 5749 5748 5746 5744 5742 5740 5739 5737 5736 5735
5811 5810 5809 5808 5806 5805 5803 5801 5799 5797 5795 5793 5791 5788 5786 5783 5781 5779 5776 5774 5772 5770 5767 5764 5761 5759 5756 5754 5751 5749 5747 5744 5742 5740 5738 5736 5734 5732 5731 5729 5728 5726 5725
5801 5800 5799 5798 5797 5795 5794 5792 5790 5789 5787 5785 5782 5780 5777 5775 5773 5770 5768 5766 5764 5761 5759 5756 5753 5750 5748 5745 5743 5740 5738 5735 5733 5731 5728 5726 5724 5722 5721 5719 5718 5716 5715
5792 5790 5789 5788 5787 5786 5784 5783 5781 5780 5778 5776 5774 5771 5769 5767 5765 5762 5760 5758 5756 5753 5750 5748 5745 5741 5739 5736 5734 5731 5729 5726 5723 5721 5719 5717 5715 5713 5711 5710 5708 5707 5706